Location: Champs
(48.8539°N, 2.6040°E)
Time: 13:38:50
(UTC+00:00)

Cosmos 44 Rocket - Pass Details

Date: 26 October 2021
Orbit: 644 x 745 km, 65.1° (Epoch: 07 December)

Event Time Altitude Azimuth Distance (km) Brightness Sun altitude
Exits shadow 04:14:46 24° 333° (NNW) 1,477 4.8 -22.3°
Maximum altitude 04:17:46 61° 47° (NE) 798 3.7 -21.8°
Drops below altitude 10° 04:22:34 10° 128° (SE) 2,130 6.4 -21.0°
Sets 04:24:53 0° 132° (SE) 3,026 7.2 -20.7°
